Wetbulb
47.09 43.42 40.79 42.72 44.58 44.83 44.04 41.60 40.20 42.76 43.55 43.62 43.35 43.92 45.37 47.09 47.51 48.08 49.07 48.89 49.28 49.04 49.67 49.26 50.18 51.78 53.09 59.03 63.85 64.84 65.27 66.57 65.41 64.06 63.78 63.64 63.29 64.10 64.62 65.10 65.48 64.90 63.64 62.56
42.95 40.19 44.93 46.11 43.52 42.33 42.66 40.90 40.59 41.25 42.66 42.91 43.33 42.74 45.50 45.85 46.27 46.33 46.74 47.55 47.56 48.38 49.22 49.76 50.81 50.96 50.66 51.84 57.10 62.05 64.05 65.30 66.16 64.19 64.12 64.05 63.85 64.06 64.37 64.65 64.65 64.77 64.07 62.92
40.73 42.62 44.63 42.81 41.52 41.02 41.33 40.18 40.29 40.23 40.67 41.93 41.24 41.04 43.11 43.03 45.08 46.20 46.90 47.22 47.89 48.48 49.11 50.34 51.23 52.33 52.34 50.91 52.67 56.02 60.81 63.53 64.98 65.49 63.88 63.59 62.72 62.74 63.20 63.43 63.71 63.99 64.15 63.21
42.26 41.34 41.59 41.92 41.11 42.37 38.23 42.38 42.21 40.23 39.70 36.50 40.72 35.98 41.28 42.08 43.34 45.23 46.61 47.76 48.04 48.61 49.73 50.44 50.72 51.20 52.41 53.14 51.97 51.61 56.26 59.34 61.92 64.12 63.96 61.86 61.06 59.91 61.14 62.38 63.67 63.61 64.07 63.62
39.29 39.19 39.72 40.00 41.32 42.97 40.25 43.29 42.33 41.90 40.68 38.92 38.37 36.57 40.50 41.11 40.94 43.05 45.71 46.58 47.72 48.63 49.08 48.69 49.13 50.02 51.39 53.41 55.27 54.69 54.26 56.03 58.09 60.78 62.10 61.99 60.28 61.17 61.74 61.29 61.64 62.75 63.45 63.69
40.96 42.39 43.00 42.25 41.69 42.73 42.79 41.63 41.17 41.60 40.04 33.00 38.73 37.24 38.93 38.67 41.92 43.57 45.12 46.44 46.89 47.59 47.97 48.37 49.47 50.31 50.49 52.01 52.60 53.84 54.97 57.16 58.51 58.93 60.03 60.07 59.75 58.98 58.17 58.35 58.12 58.91 59.50 60.30
38.99 39.48 41.79 42.80 39.19 41.77 42.31 39.16 32.80 31.64 31.48 31.04 34.63 34.39 39.25 40.72 44.55 45.42 44.49 45.61 46.88 48.30 48.76 48.85 48.90 48.99 49.58 49.81 50.28 50.88 51.13 50.90 52.52 53.21 53.85 55.45 56.90 56.71 56.32 55.98 56.41 56.45 57.27 58.20
34.65 31.72 39.14 42.57 41.79 38.82 39.59 39.77 34.35 27.14 28.43 32.25 31.71 31.62 38.20 42.70 45.73 47.02 46.78 46.70 47.26 47.32 48.06 48.17 48.32 48.35 48.32 48.82 49.42 49.44 49.20 49.07 50.15 50.51 50.49 51.20 51.73 51.77 51.52 51.54 51.81 52.11 52.22 52.79
35.53 34.85 40.64 41.34 41.88 42.87 39.27 35.97 40.41 32.30 27.55 32.00 34.64 37.72 39.92 40.82 43.05 44.53 44.74 45.50 46.28 46.98 47.33 47.20 47.82 48.03 47.75 47.63 47.91 48.30 47.94 47.79 48.09 48.32 48.56 48.29 48.62 48.59 48.47 48.66 49.06 48.79 49.37 48.60
39.78 32.85 37.82 38.72 41.74 41.05 40.17 41.79 33.59 36.13 28.16 28.38 33.42 35.07 37.07 36.60 39.89 42.52 42.92 44.98 45.99 46.65 46.48 46.90 47.09 47.07 47.38 47.54 47.70 47.80 47.50 46.60 47.18 47.42 47.20 46.77 46.78 47.13 47.21 47.01 46.14 46.00 46.49 46.29
41.03 39.17 33.80 37.95 37.06 37.56 36.84 36.31 37.21 38.11 36.45 32.32 30.04 33.92 41.10 40.74 42.44 42.78 44.06 46.03 45.73 45.88 46.20 46.38 46.46 46.87 46.99 47.28 46.83 46.27 45.82 45.29 45.11 45.69 45.59 45.28 45.06 45.26 45.29 44.65 44.21 43.73 44.71 43.99
41.34 38.23 32.03 34.63 38.27 39.23 40.46 38.93 38.41 34.10 30.45 33.24 32.09 35.79 41.68 44.07 44.41 45.75 45.12 45.99 46.39 46.37 46.16 46.12 46.00 46.07 45.82 45.29 45.10 44.11 43.61 42.88 43.09 43.59 43.64 43.09 43.01 43.14 42.58 42.04 41.96 42.35 41.82 42.61
40.41 37.12 30.31 30.91 35.73 37.13 36.20 38.23 39.56 39.63 37.30 32.43 31.86 35.17 40.59 42.74 44.25 45.66 45.06 45.36 45.44 45.32 45.21 45.23 45.07 44.99 44.51 44.03 43.58 42.58 41.89 40.86 41.47 41.73 41.79 41.53 40.90 40.68 40.23 40.22 40.52 40.51 40.36 40.56
42.43 37.68 35.40 31.52 34.75 38.52 34.46 36.80 37.61 38.04 32.93 33.86 34.28 37.07 37.56 41.65 42.92 44.33 44.18 45.10 45.01 44.61 44.37 44.84 44.63 44.19 43.76 43.53 42.72 41.67 40.72 40.69 40.55 40.71 40.58 39.95 39.35 39.06 38.70 38.77 38.63 38.58 38.38 38.55
40.62 34.42 36.75 38.16 37.14 38.39 37.66 36.60 36.42 34.89 36.95 33.97 37.05 36.50 40.63 41.44 43.35 44.32 45.42 44.99 43.98 43.34 43.16 43.07 42.65 42.51 42.34 41.63 41.06 40.72 40.07 39.49 39.91 39.46 38.89 38.19 38.55 38.17 37.49 37.13 36.91 36.69 36.42 36.73
39.59 34.85 37.01 33.38 35.84 35.83 34.03 37.00 36.19 36.03 37.21 37.62 38.38 38.41 43.87 44.58 45.46 44.64 44.25 43.98 43.05 42.59 42.40 42.02 41.99 41.41 40.58 39.75 39.32 39.40 39.14 38.40 38.74 37.75 36.80 36.49 36.22 35.52 35.72 35.25 34.56 34.41 34.66 35.11
37.51 34.52 33.56 31.60 33.97 34.70 31.17 34.20 36.24 36.78 38.84 39.22 35.47 40.12 42.96 42.87 43.13 43.62 43.38 43.44 42.85 42.42 41.57 40.68 40.24 39.50 39.08 38.46 38.70 37.73 37.73 38.04 36.93 36.51 35.56 34.72 34.15 33.40 33.32 32.95 32.68 32.47 33.05 33.59
37.64 33.65 33.14 30.72 32.56 24.63 36.13 38.97 40.62 38.16 39.67 40.88 40.95 41.98 42.81 43.45 44.34 45.08 45.60 43.53 42.79 41.74 40.16 39.92 39.43 38.61 38.15 38.03 37.48 37.37 36.84 36.15 35.44 34.79 34.24 33.07 32.02 31.07 30.92 30.72 30.50 31.29 31.76 31.43
40.24 37.24 31.78 30.60 29.93 34.71 37.32 32.86 35.47 35.34 36.35 41.79 40.81 42.00 42.68 43.73 44.02 43.05 45.54 44.69 42.65 40.66 39.58 39.26 39.14 38.27 37.35 36.56 35.97 34.81 34.68 33.96 33.31 31.99 31.25 30.34 29.87 28.41 28.40 27.54 28.98 29.52 29.58 29.49
37.15 38.48 35.57 31.29 29.74 27.05 36.16 35.45 40.45 40.87 32.41 42.83 41.65 41.31 40.26 40.61 35.84 40.15 43.21 42.31 39.94 38.61 38.06 37.08 37.04 36.85 35.89 34.40 33.44 31.69 31.44 30.82 29.78 28.71 27.75 27.67 27.36 25.84 25.35 26.55 27.13 28.67 29.09 28.23
30.36 32.23 31.84 31.45 30.91 33.56 34.20 33.70 39.45 31.17 34.62 38.65 41.78 42.09 39.22 38.57 41.22 42.12 39.52 36.97 36.93 36.26 35.77 36.05 35.65 34.85 33.54 30.45 29.40 29.04 28.50 27.98 27.23 26.56 25.64 24.78 24.49 22.97 23.87 24.98 25.83 25.98 26.61 27.46
30.55 30.00 30.35 31.80 30.37 28.39 34.83 34.08 34.53 37.65 33.78 37.10 40.11 40.73 39.09 36.93 37.79 37.11 36.79 34.58 34.07 33.75 34.35 34.47 33.21 31.69 29.56 27.62 27.33 26.36 25.88 25.48 24.25 23.09 21.59 20.28 19.53 20.83 22.66 21.71 22.64 23.71 24.55 25.04
30.32 34.35 32.68 33.83 34.75 34.05 35.76 35.11 37.74 37.72 36.41 36.26 38.92 39.72 37.46 36.10 35.84 35.87 34.27 33.64 33.26 33.26 32.70 32.82 30.71 26.91 25.67 24.54 24.52 22.97 23.26 21.57 20.14 16.73 14.95 16.16 17.95 19.01 20.53 20.79 21.05 22.58 24.15 24.61
32.34 32.21 32.27 33.09 33.55 33.63 34.14 34.89 35.37 36.87 36.96 37.62 38.83 37.28 37.12 35.45 35.33 34.31 33.62 32.97 32.09 30.12 27.97 25.66 24.59 23.19 22.26 21.99 21.39 19.94 19.28 18.28 11.96 12.54 14.22 15.98 17.01 18.55 19.79 21.76 21.52 21.73 22.07 22.37
33.07 32.21 32.02 31.74 29.09 31.74 33.53 34.34 36.11 35.78 36.07 36.41 37.47 37.63 37.04 35.57 33.97 33.15 31.30 30.71 29.78 27.80 24.38 23.75 22.81 21.92 21.17 19.77 18.69 17.64 16.47 13.02 11.25 12.16 13.88 16.13 18.22 18.26 17.86 19.29 19.95 20.22 21.56 22.31
31.75 32.55 31.68 33.18 33.83 34.96 35.19 36.06 35.93 35.18 34.73 35.00 32.93 31.84 34.40 33.82 32.25 31.49 30.20 29.63 27.60 24.79 22.55 20.92 19.64 18.93 18.12 15.99 14.94 14.12 10.85 9.30 7.00 10.38 13.90 15.11 14.09 16.08 16.48 17.34 17.93 22.22 23.60 25.00
MSLP
1011.50 1010.97 1010.08 1010.23 1010.12 1009.60 1009.81 1010.89 1011.78 1012.28 1013.67 1013.62 1013.21 1012.98 1012.76 1013.39 1013.82 1013.75 1013.78 1014.01 1014.30 1014.78 1015.45 1016.11 1016.39 1016.75 1016.84 1016.95 1017.07 1017.49 1017.95 1018.51 1019.67 1020.38 1020.86 1021.23 1021.40 1021.82 1022.08 1022.15 1022.26 1022.49 1022.88 1023.19
1011.57 1010.52 1010.19 1010.24 1010.67 1010.61 1010.47 1010.92 1011.92 1013.49 1014.16 1013.95 1013.45 1012.88 1012.85 1013.65 1013.88 1014.47 1014.67 1014.74 1015.10 1015.47 1015.94 1016.56 1016.76 1017.03 1017.19 1017.19 1017.22 1017.43 1017.73 1018.23 1018.87 1019.86 1020.44 1020.71 1020.97 1021.22 1021.48 1021.88 1022.08 1022.21 1022.44 1022.76
1010.50 1010.50 1010.72 1010.82 1011.03 1010.87 1011.17 1011.21 1012.03 1012.75 1014.27 1014.27 1013.76 1012.65 1012.85 1014.10 1014.67 1015.08 1015.38 1015.78 1016.12 1016.10 1016.33 1016.88 1017.24 1017.38 1017.48 1017.56 1017.43 1017.49 1017.65 1018.04 1018.50 1019.15 1020.05 1020.61 1020.98 1021.12 1021.15 1021.40 1021.77 1021.90 1022.08 1022.30
1010.78 1011.51 1011.36 1011.29 1011.11 1011.21 1011.60 1012.07 1012.41 1013.23 1013.69 1013.58 1013.94 1012.18 1012.29 1013.41 1014.51 1015.04 1015.51 1015.89 1016.45 1016.77 1017.09 1017.44 1017.74 1018.06 1018.28 1018.18 1018.14 1018.00 1017.89 1018.19 1018.45 1018.85 1019.24 1020.16 1020.62 1020.72 1020.81 1020.99 1021.09 1021.27 1021.66 1021.77
1010.94 1011.67 1012.03 1011.94 1011.52 1011.76 1012.30 1012.79 1012.94 1013.50 1013.73 1013.81 1013.89 1013.57 1012.17 1013.27 1014.30 1015.12 1015.54 1016.37 1017.17 1017.42 1017.63 1018.00 1018.38 1018.72 1019.05 1018.91 1018.63 1018.57 1018.66 1018.76 1019.02 1019.08 1019.40 1019.86 1020.47 1020.74 1020.83 1020.97 1021.09 1021.04 1021.06 1021.27
1011.88 1012.47 1012.40 1012.29 1012.74 1012.54 1013.24 1013.40 1013.91 1014.27 1014.45 1014.19 1013.45 1013.51 1011.73 1012.69 1013.24 1014.90 1015.82 1016.57 1017.53 1018.02 1018.37 1018.61 1018.90 1019.04 1019.32 1019.49 1019.43 1019.35 1019.33 1019.44 1019.53 1019.65 1019.83 1019.99 1020.26 1020.95 1021.42 1021.68 1021.71 1021.63 1021.57 1021.52
1012.10 1012.66 1013.22 1013.05 1013.20 1013.71 1013.00 1012.80 1014.06 1014.56 1014.66 1014.06 1014.72 1014.31 1012.10 1012.91 1013.57 1014.68 1015.57 1016.72 1017.89 1018.20 1018.68 1018.95 1019.31 1019.65 1019.87 1019.95 1020.12 1020.16 1020.07 1020.17 1020.38 1020.65 1020.89 1021.08 1021.24 1021.46 1021.52 1021.73 1021.79 1021.84 1021.71 1021.76
1010.97 1012.79 1012.80 1012.80 1012.33 1012.65 1012.78 1012.33 1012.83 1013.65 1014.54 1014.41 1015.28 1014.02 1012.70 1013.69 1014.12 1014.88 1016.04 1016.88 1018.00 1018.71 1019.22 1019.51 1020.05 1020.29 1020.59 1020.73 1020.78 1021.01 1021.06 1021.20 1021.35 1021.42 1021.64 1021.90 1021.99 1022.07 1022.29 1022.50 1022.57 1022.60 1022.58 1022.55
1010.00 1011.91 1013.11 1013.29 1013.08 1012.70 1013.24 1012.88 1013.22 1013.98 1015.72 1014.80 1013.73 1013.34 1013.93 1014.53 1014.79 1015.36 1016.35 1017.32 1017.98 1018.86 1019.59 1019.98 1020.46 1020.82 1021.12 1021.32 1021.38 1021.61 1021.80 1022.14 1022.30 1022.33 1022.48 1022.63 1022.84 1022.98 1023.17 1023.14 1023.13 1023.27 1023.11 1023.01
1009.59 1011.36 1013.50 1013.98 1013.57 1013.61 1012.99 1012.59 1013.32 1013.35 1014.13 1013.68 1012.58 1012.58 1012.15 1013.73 1014.23 1015.23 1016.11 1016.97 1018.03 1018.99 1019.71 1020.18 1020.75 1021.39 1021.76 1021.88 1022.03 1022.20 1022.35 1022.75 1023.04 1023.11 1023.21 1023.36 1023.52 1023.65 1023.77 1023.79 1023.83 1023.81 1023.74 1023.56
1009.87 1010.74 1014.06 1014.40 1013.15 1012.68 1013.33 1012.55 1012.50 1012.43 1012.82 1012.48 1012.27 1011.44 1011.33 1011.77 1012.91 1014.00 1015.50 1016.56 1017.97 1018.96 1019.72 1020.26 1020.95 1021.61 1022.16 1022.49 1022.55 1022.97 1023.15 1023.42 1023.83 1023.87 1024.05 1024.00 1024.13 1024.22 1024.29 1024.34 1024.28 1024.19 1024.04 1023.97
1010.36 1011.45 1013.15 1013.46 1013.68 1013.50 1012.71 1012.14 1012.15 1012.04 1012.74 1012.82 1012.75 1011.83 1011.90 1011.33 1012.36 1013.84 1015.14 1016.51 1018.00 1019.04 1019.76 1020.43 1021.29 1021.79 1022.40 1022.94 1023.43 1023.61 1023.94 1024.26 1024.53 1024.55 1024.64 1024.78 1024.93 1024.87 1024.93 1024.95 1024.89 1024.86 1024.50 1024.30
1010.13 1011.14 1012.91 1013.93 1014.20 1013.83 1013.02 1012.41 1011.88 1011.91 1012.38 1012.79 1012.84 1011.80 1012.16 1011.73 1012.39 1013.69 1014.92 1016.56 1017.99 1019.25 1020.22 1021.10 1021.48 1022.04 1022.57 1023.13 1023.70 1023.98 1024.39 1024.80 1024.98 1025.01 1025.20 1025.28 1025.38 1025.42 1025.51 1025.49 1025.41 1025.21 1024.99 1024.62
1010.07 1010.61 1010.82 1010.99 1010.64 1011.03 1012.09 1011.58 1011.66 1011.63 1012.11 1011.38 1011.21 1011.00 1011.73 1011.90 1012.53 1013.88 1015.12 1016.57 1017.82 1019.00 1020.18 1020.80 1021.38 1022.19 1022.79 1023.19 1023.77 1024.20 1024.65 1025.07 1025.28 1025.29 1025.40 1025.42 1025.83 1025.85 1025.70 1025.82 1025.88 1025.80 1025.49 1025.13
1010.94 1011.28 1011.44 1011.21 1011.67 1011.40 1011.22 1011.31 1011.57 1011.63 1010.52 1010.86 1009.63 1009.94 1010.04 1011.34 1012.14 1013.11 1014.70 1016.52 1017.64 1018.86 1019.92 1020.72 1021.58 1022.30 1022.85 1023.44 1024.03 1024.39 1024.94 1025.30 1025.42 1025.55 1025.77 1026.08 1026.17 1026.52 1026.53 1026.34 1026.22 1026.09 1025.89 1025.34
1011.83 1012.02 1012.06 1012.63 1012.72 1012.53 1012.07 1011.54 1011.24 1011.03 1010.43 1010.19 1009.34 1009.07 1009.41 1010.63 1012.36 1013.57 1014.71 1015.95 1017.15 1018.56 1019.73 1020.81 1021.64 1022.24 1022.91 1023.65 1024.21 1024.73 1025.22 1025.68 1026.03 1026.30 1026.60 1026.86 1027.11 1026.84 1026.77 1026.72 1026.51 1025.92 1025.78 1025.31
1012.00 1012.52 1013.17 1013.42 1013.46 1013.06 1012.43 1010.57 1010.56 1010.38 1009.83 1009.21 1009.06 1008.09 1009.78 1010.71 1011.78 1012.89 1014.21 1015.34 1016.63 1018.14 1019.45 1020.64 1021.64 1022.53 1023.31 1023.96 1024.55 1025.09 1025.70 1026.18 1026.70 1026.94 1027.03 1027.23 1027.08 1026.94 1026.87 1026.78 1026.41 1025.94 1025.59 1025.16
1011.82 1012.80 1013.28 1013.82 1014.04 1013.04 1009.99 1010.02 1009.75 1009.63 1009.03 1009.02 1008.81 1008.81 1009.46 1010.13 1011.08 1012.07 1013.54 1014.99 1016.49 1017.99 1019.46 1020.66 1021.65 1022.68 1023.56 1024.28 1024.93 1025.50 1026.26 1026.53 1026.99 1027.31 1027.37 1027.12 1027.18 1027.21 1027.11 1026.87 1026.46 1025.95 1025.59 1025.08
1011.86 1012.23 1013.18 1013.48 1013.31 1011.47 1010.17 1010.49 1010.07 1009.73 1008.69 1008.81 1008.53 1009.19 1010.03 1010.73 1012.02 1013.09 1013.92 1015.39 1016.59 1018.04 1019.52 1020.66 1021.77 1022.82 1023.84 1024.70 1025.47 1025.99 1026.71 1027.18 1027.27 1027.34 1027.41 1027.49 1027.53 1027.48 1027.25 1026.96 1026.40 1025.95 1025.54 1024.98
1012.71 1011.96 1012.40 1013.15 1012.45 1011.09 1008.60 1009.56 1009.92 1010.30 1009.26 1008.25 1009.05 1009.60 1010.47 1011.58 1012.47 1012.18 1014.09 1015.61 1017.16 1018.55 1019.79 1021.05 1022.36 1023.50 1024.50 1025.51 1026.15 1026.98 1027.33 1027.24 1027.34 1027.75 1027.81 1027.83 1027.85 1027.65 1027.34 1027.09 1026.62 1026.10 1025.60 1024.86
1012.63 1012.50 1012.08 1012.36 1011.82 1010.60 1009.80 1010.17 1010.45 1011.01 1009.46 1008.41 1008.62 1009.00 1010.27 1010.95 1011.21 1012.46 1014.62 1016.38 1017.60 1018.95 1020.42 1021.75 1022.85 1023.93 1025.25 1026.28 1026.74 1026.98 1027.26 1027.47 1027.77 1028.01 1028.12 1028.14 1028.01 1027.87 1027.59 1027.16 1026.75 1026.07 1025.40 1024.54
1010.99 1011.37 1011.75 1011.95 1011.67 1010.77 1010.09 1011.07 1010.55 1010.01 1010.07 1009.92 1009.90 1010.25 1011.27 1012.32 1013.03 1013.90 1015.12 1016.63 1017.98 1019.43 1020.96 1021.99 1023.57 1024.89 1025.76 1026.47 1026.69 1027.24 1027.60 1027.98 1028.26 1028.55 1028.57 1028.38 1028.28 1028.10 1027.65 1027.20 1026.57 1026.01 1025.32 1024.44
1011.09 1010.32 1010.66 1010.78 1009.87 1009.90 1009.99 1010.03 1009.87 1010.27 1010.54 1010.77 1010.75 1011.17 1012.05 1013.08 1014.00 1015.00 1015.98 1017.36 1018.60 1020.03 1021.58 1022.85 1023.96 1025.07 1025.96 1026.67 1027.09 1027.67 1028.15 1028.48 1028.80 1029.08 1029.05 1028.80 1028.37 1027.92 1027.42 1026.84 1026.20 1025.74 1025.11 1024.36
1010.96 1010.83 1010.67 1010.67 1010.23 1010.32 1010.49 1010.75 1010.81 1011.09 1011.14 1011.21 1011.43 1011.85 1012.39 1013.55 1014.79 1015.94 1017.10 1018.32 1019.70 1021.27 1022.59 1023.63 1024.44 1025.30 1026.14 1026.86 1027.44 1028.01 1028.51 1028.92 1029.31 1029.33 1029.01 1028.59 1028.12 1027.54 1027.05 1026.60 1026.18 1025.52 1024.91 1024.02
1010.59 1010.64 1010.57 1010.60 1010.86 1010.90 1010.72 1010.70 1010.92 1011.60 1011.85 1012.11 1012.41 1012.74 1013.22 1014.21 1015.73 1016.51 1017.69 1019.13 1020.59 1021.86 1023.08 1023.87 1024.58 1025.49 1026.39 1027.13 1027.77 1028.41 1028.92 1029.33 1029.52 1029.32 1028.91 1028.40 1027.83 1027.40 1026.90 1026.36 1025.75 1025.09 1024.59 1024.00
1010.39 1009.97 1010.16 1009.71 1009.67 1009.92 1010.15 1010.25 1011.10 1011.81 1012.17 1012.52 1012.71 1013.58 1014.19 1014.64 1015.71 1017.09 1018.54 1019.78 1020.99 1022.31 1023.38 1024.34 1025.28 1026.10 1026.96 1027.72 1028.40 1028.91 1029.30 1029.54 1029.68 1029.31 1028.75 1028.34 1027.94 1027.33 1026.71 1025.82 1024.77 1024.56 1023.85 1023.18
Wind_Speed
14 12 18 18 16 11 16 14 10 7 3 6 12 10 9 6 5 7 6 3 3 2 2 2 3 5 7 10 12 13 13 13 10 6 5 4 6 5 5 4 6 8 7 8
8 17 17 16 8 6 10 14 9 5 3 4 5 11 10 3 4 1 4 5 2 2 3 2 2 0 5 8 10 12 12 12 10 7 6 4 4 4 5 5 7 8 7 8
15 12 10 8 10 12 9 14 12 4 6 1 2 8 12 4 4 3 2 1 2 2 5 5 5 4 3 2 6 9 11 11 10 12 7 4 2 0 3 5 5 7 8 9
10 5 11 13 16 14 9 2 11 11 11 5 3 4 8 8 6 5 5 4 5 7 7 7 8 8 7 5 3 5 5 8 8 9 9 6 4 6 4 5 5 6 8 9
6 9 13 14 15 10 5 8 9 9 5 1 6 6 6 8 8 6 6 7 6 7 9 9 9 9 9 8 8 7 6 5 4 5 6 5 6 6 5 2 4 6 6 9
5 2 7 3 7 1 16 13 11 6 3 6 10 8 9 9 11 11 9 10 9 8 9 9 9 10 10 10 10 10 11 10 8 6 4 1 2 6 5 5 4 5 4 4
5 7 3 6 10 8 10 15 5 7 5 6 3 4 4 7 6 12 15 13 10 10 9 9 10 10 11 12 11 10 12 13 12 12 10 8 6 4 3 4 4 5 4 5
13 8 12 10 9 10 14 16 6 7 7 6 3 9 2 8 6 13 13 14 11 9 8 10 10 10 10 11 12 12 13 13 12 12 12 10 10 7 6 7 6 5 6 6
14 7 3 3 1 11 12 9 4 7 2 2 7 5 4 8 11 13 14 13 12 11 9 10 10 10 10 11 12 12 12 13 12 12 11 11 10 10 8 9 8 6 6 6
7 6 1 2 3 1 8 12 5 3 6 5 7 8 7 15 19 17 17 16 14 11 10 10 10 9 9 10 10 11 11 12 10 11 9 9 9 9 8 7 8 9 8 9
8 4 4 4 10 14 5 6 5 4 3 5 4 6 3 20 22 22 19 17 15 13 12 10 10 9 8 8 9 9 10 11 9 9 9 9 8 9 8 8 8 8 8 9
2 6 5 7 4 2 6 10 13 6 5 2 3 3 4 8 20 19 18 15 15 13 12 11 10 10 8 8 8 9 9 9 8 8 9 9 9 9 9 9 9 9 9 8
10 5 6 1 2 2 8 10 12 8 3 6 6 5 4 5 15 17 18 16 15 14 12 11 10 10 9 8 8 9 8 8 7 8 8 9 9 9 8 8 9 9 9 9
4 3 10 12 10 9 11 18 16 15 6 10 10 9 6 11 16 17 17 18 17 16 14 13 11 10 9 9 8 8 8 7 6 7 7 7 7 7 8 8 9 10 9 10
3 6 8 14 3 3 8 14 15 16 24 13 21 16 11 18 21 23 18 17 16 15 15 13 11 10 10 9 8 7 7 7 7 8 8 8 6 8 8 7 7 7 7 8
3 4 6 2 3 0 2 8 17 20 24 20 19 15 8 18 15 18 18 19 19 18 16 14 13 11 10 8 8 7 7 7 6 6 4 5 5 4 5 6 7 7 7 7
9 7 4 5 5 3 4 17 16 15 20 19 22 24 9 15 19 20 20 20 19 18 16 15 13 11 8 8 6 7 6 5 5 3 3 3 4 6 7 7 8 8 9 9
8 7 3 5 4 7 8 1 18 20 15 20 20 13 14 18 21 20 16 19 18 18 15 13 11 11 9 8 7 5 4 4 3 2 2 3 6 6 7 8 8 8 9 10
3 6 5 6 8 8 9 7 9 11 17 18 20 15 8 6 10 11 14 16 16 17 14 12 10 10 9 7 6 4 2 0 0 3 5 6 6 7 8 8 10 10 10 11
0 2 6 4 9 13 7 8 6 7 15 13 16 13 12 15 13 10 16 15 16 15 14 13 11 9 9 6 4 2 2 1 4 6 7 7 7 7 9 10 11 10 10 11
6 4 16 8 5 8 4 8 6 10 7 3 16 18 18 17 6 12 17 16 16 15 15 13 11 9 8 5 2 3 3 4 5 5 7 7 8 9 9 10 10 10 11 12
10 11 6 5 7 16 10 6 12 1 2 3 3 8 13 7 11 18 19 18 18 17 15 12 10 9 7 4 3 3 3 5 6 6 7 8 8 8 8 10 9 10 11 12
5 2 7 9 6 2 13 4 3 2 3 4 6 7 12 13 12 15 17 17 15 15 12 8 9 8 5 4 4 2 3 4 5 5 7 7 8 8 8 9 10 9 9 9
3 2 1 1 2 1 6 1 2 1 1 4 5 13 15 16 15 15 14 14 13 10 9 6 8 6 4 4 3 2 3 3 3 6 7 7 8 8 8 7 7 8 8 9
2 7 4 4 1 2 6 8 3 3 5 7 8 10 12 16 13 15 14 13 11 10 7 6 6 5 4 3 2 1 1 2 4 5 6 7 6 8 9 8 8 8 9 10
6 5 6 4 7 2 1 6 6 8 7 9 11 8 7 13 16 14 11 10 10 10 7 6 5 4 3 2 2 2 2 0 3 6 6 6 7 7 7 8 10 13 18 21
Wind_Direction
194 198 202 196 213 235 195 206 196 186 116 213 220 241 211 172 225 217 229 219 227 202 93 262 244 261 240 240 225 222 214 207 180 188 189 203 206 205 217 229 224 215 207 208
174 215 202 203 163 172 175 193 186 94 136 212 204 241 233 163 230 262 281 255 245 181 143 99 89 211 230 228 224 229 222 214 193 176 192 197 178 204 210 215 226 221 218 207
199 197 127 142 170 172 189 194 177 172 147 169 243 241 184 166 153 158 136 221 194 136 127 99 76 66 71 200 216 218 220 215 214 183 176 180 113 110 195 216 226 226 221 215
231 133 176 189 193 196 184 163 145 141 174 203 213 243 178 165 186 169 140 152 135 130 108 93 80 66 61 64 113 208 197 210 215 212 202 186 217 239 236 241 213 221 220 226
152 157 177 191 192 203 134 151 137 153 185 225 190 251 132 166 196 178 145 121 125 105 108 96 84 77 68 60 69 90 112 124 153 204 234 206 217 227 209 258 250 210 215 221
97 353 197 137 80 196 138 118 98 113 175 238 213 232 203 174 202 162 144 134 131 118 105 98 88 86 80 72 75 80 86 82 90 106 130 172 353 21 21 2 358 353 342 339
125 154 122 160 100 138 171 157 148 195 195 233 52 218 250 124 165 174 155 144 142 133 117 104 94 82 76 77 76 76 81 80 79 78 72 72 89 83 69 8 1 341 337 336
180 198 180 174 205 174 193 187 170 189 195 183 87 230 210 121 157 143 142 141 136 128 121 106 97 94 86 79 77 76 74 74 71 73 69 62 52 57 52 43 25 22 8 0
190 154 111 180 110 171 176 202 69 105 21 162 183 223 179 164 160 153 152 155 149 140 132 118 105 94 89 82 76 77 76 70 64 65 62 59 53 52 47 42 35 22 16 2
205 129 207 106 146 116 220 144 152 216 162 215 185 240 240 185 178 172 169 169 157 146 140 130 116 106 99 92 87 82 78 73 65 66 62 60 54 51 44 41 32 19 6 2
168 106 132 178 206 180 163 186 213 230 238 213 184 235 343 189 184 178 175 170 162 161 151 138 128 117 104 95 88 82 75 72 64 62 58 57 50 43 41 34 25 14 359 357
151 105 149 188 73 11 268 217 196 201 191 299 41 257 333 209 184 178 172 163 166 163 153 145 140 131 118 104 91 82 74 70 59 56 59 52 43 35 31 23 15 5 360 351
177 152 106 76 245 176 218 199 221 220 61 193 183 229 328 217 170 172 166 167 164 159 157 155 150 145 131 117 104 91 80 72 59 55 50 46 37 28 21 12 2 357 349 343
120 123 196 205 210 152 200 202 199 205 200 209 227 214 163 175 171 173 171 174 169 168 168 167 156 144 127 118 110 97 83 69 58 56 48 48 28 12 10 0 355 347 342 332
147 205 211 232 33 248 202 197 191 204 222 209 235 231 202 187 184 190 178 171 169 170 176 164 156 148 136 123 110 101 87 66 43 40 33 20 11 358 347 343 332 325 309 310
169 203 213 44 105 169 238 223 192 209 227 234 248 252 282 178 190 180 180 177 178 175 172 167 158 144 132 125 112 100 79 62 35 34 19 354 338 329 332 329 319 311 306 308
165 142 138 208 120 85 281 224 200 214 222 219 231 237 152 179 187 186 185 186 179 174 168 164 155 146 132 117 105 82 63 50 26 355 351 323 336 339 340 327 323 317 315 312
156 134 106 119 130 218 246 57 211 213 221 223 239 243 190 188 194 195 190 178 172 167 160 155 146 139 125 111 95 85 59 41 351 321 329 2 350 338 327 322 315 314 314 311
195 143 163 184 201 306 261 195 164 175 237 226 227 220 197 167 160 197 183 176 165 157 151 143 139 127 120 108 94 74 101 251 276 8 354 350 345 329 323 320 320 319 316 311
137 256 191 155 212 219 275 157 147 119 266 208 209 207 165 143 186 195 168 156 142 137 133 128 122 119 121 109 90 159 133 12 30 0 340 335 334 327 323 317 313 310 304 300
158 165 208 200 224 275 142 147 152 177 253 215 192 198 174 187 207 132 136 134 132 132 129 126 129 129 129 124 134 92 42 35 10 346 336 331 328 320 307 305 306 305 301 298
174 165 183 194 200 246 139 122 180 118 33 165 149 161 175 109 124 141 141 138 136 132 132 128 131 138 130 105 86 68 38 20 1 341 327 320 314 306 304 301 301 302 301 294
200 206 171 205 218 81 186 20 126 145 160 196 141 147 133 131 140 142 138 136 131 130 129 127 135 131 117 93 78 73 46 3 341 334 306 299 300 297 295 302 303 302 297 295
236 172 194 135 144 158 212 330 309 274 291 142 143 141 139 139 145 139 134 132 129 127 134 131 132 133 137 113 90 70 1 2 347 299 305 308 303 304 297 298 295 291 293 293
97 143 171 263 204 272 251 221 170 137 119 119 133 149 143 140 148 144 137 134 137 136 132 137 140 140 148 131 135 112 355 10 304 297 297 298 299 308 303 288 291 290 283 284
185 173 192 239 162 164 214 195 155 165 172 161 144 128 137 149 147 143 140 140 140 145 141 138 139 143 154 160 201 179 130 243 307 310 310 313 304 303 301 302 303 292 292 293